Torna al catalogo

KUIPER-00520

AttivoComunicazioniLEO
NORAD 69601·PAYLOAD·🇺🇸 United States

Lanciato Jun 17, 2026 da Guiana Space Centre

Loading…

Prossimi Passaggi (prossime 24 ore)

TLE

AggiornatoSource: CelesTrak SupGP

Epoca: Sep 14, 2026, 17:38 UTC

1 69601C 26140K   26257.73515046  .00005202  00000+0  73672-3 0  2571
2 69601  51.9020 341.5359 0001036 173.0152  39.5551 14.76592440    11

Traccia KUIPER-00520 in tempo reale con AllMySat

Download on the App Store